owner,sensor,date,latitude,longitude,air_temperature,qcFlag 
WAVCIS,ioos:station:WAVCIS:CSI09:1,2009-12-01T00:00:00Z,29.1015,-89.9782,15.8,11111222 
WAVCIS,ioos:station:WAVCIS:CSI09:1,2009-12-01T01:00:00Z,29.1015,-89.9782,15.74,11111222 
WAVCIS,ioos:station:WAVCIS:CSI09:1,2009-12-01T02:00:00Z,29.1015,-89.9782,14.66,11111222 
WAVCIS,ioos:station:WAVCIS:CSI09:1,2009-12-01T03:00:00Z,29.1015,-89.9782,14.14,11111222 
WAVCIS,ioos:station:WAVCIS:CSI09:1,2009-12-01T04:00:00Z,29.1015,-89.9782,13.97,11111222 
WAVCIS,ioos:station:WAVCIS:CSI09:1,2009-12-01T05:00:00Z,29.1015,-89.9782,13.91,11111222 
WAVCIS,ioos:station:WAVCIS:CSI09:1,2009-12-01T06:00:00Z,29.1015,-89.9782,13.97,11111222 
WAVCIS,ioos:station:WAVCIS:CSI09:1,2009-12-01T07:00:00Z,29.1015,-89.9782,13.76,11111222 
WAVCIS,ioos:station:WAVCIS:CSI09:1,2009-12-01T08:00:00Z,29.1015,-89.9782,12.89,11111222 
WAVCIS,ioos:station:WAVCIS:CSI09:1,2009-12-01T09:00:00Z,29.1015,-89.9782,12.38,11111222 
WAVCIS,ioos:station:WAVCIS:CSI09:1,2009-12-01T10:00:00Z,29.1015,-89.9782,12.45,11111222 
WAVCIS,ioos:station:WAVCIS:CSI09:1,2009-12-01T11:00:00Z,29.1015,-89.9782,12.93,11111222 
WAVCIS,ioos:station:WAVCIS:CSI09:1,2009-12-01T12:00:00Z,29.1015,-89.9782,13.48,11111222 
WAVCIS,ioos:station:WAVCIS:CSI09:1,2009-12-01T13:00:00Z,29.1015,-89.9782,13.94,11111222 
WAVCIS,ioos:station:WAVCIS:CSI09:1,2009-12-01T14:00:00Z,29.1015,-89.9782,14.41,11111222 
WAVCIS,ioos:station:WAVCIS:CSI09:1,2009-12-01T15:00:00Z,29.1015,-89.9782,14.73,11111222 
WAVCIS,ioos:station:WAVCIS:CSI09:1,2009-12-01T16:00:00Z,29.1015,-89.9782,14.71,11111222 
WAVCIS,ioos:station:WAVCIS:CSI09:1,2009-12-01T17:00:00Z,29.1015,-89.9782,14.8,11111222 
WAVCIS,ioos:station:WAVCIS:CSI09:1,2009-12-01T18:00:00Z,29.1015,-89.9782,14.32,11111222 
WAVCIS,ioos:station:WAVCIS:CSI09:1,2009-12-01T19:00:00Z,29.1015,-89.9782,14.2,11111222 
WAVCIS,ioos:station:WAVCIS:CSI09:1,2009-12-01T20:00:00Z,29.1015,-89.9782,14.95,11111222 
WAVCIS,ioos:station:WAVCIS:CSI09:1,2009-12-01T21:00:00Z,29.1015,-89.9782,15.93,11111222 
WAVCIS,ioos:station:WAVCIS:CSI09:1,2009-12-01T22:00:00Z,29.1015,-89.9782,16.97,11111222 
WAVCIS,ioos:station:WAVCIS:CSI09:1,2009-12-01T23:00:00Z,29.1015,-89.9782,17.63,11111222 
WAVCIS,ioos:station:WAVCIS:CSI09:1,2009-12-02T00:00:00Z,29.1015,-89.9782,19.82,11111222 
WAVCIS,ioos:station:WAVCIS:CSI09:1,2009-12-02T01:00:00Z,29.1015,-89.9782,20.55,11111222 
WAVCIS,ioos:station:WAVCIS:CSI09:1,2009-12-02T02:00:00Z,29.1015,-89.9782,12.47,11111222 
WAVCIS,ioos:station:WAVCIS:CSI09:1,2009-12-02T03:00:00Z,29.1015,-89.9782,13.04,11111222 
WAVCIS,ioos:station:WAVCIS:CSI09:1,2009-12-02T04:00:00Z,29.1015,-89.9782,14.31,11111222 
WAVCIS,ioos:station:WAVCIS:CSI09:1,2009-12-02T05:00:00Z,29.1015,-89.9782,15.05,11111222 
WAVCIS,ioos:station:WAVCIS:CSI09:1,2009-12-02T06:00:00Z,29.1015,-89.9782,15.83,11111222 
WAVCIS,ioos:station:WAVCIS:CSI09:1,2009-12-02T07:00:00Z,29.1015,-89.9782,18.23,11111222 
WAVCIS,ioos:station:WAVCIS:CSI09:1,2009-12-02T08:00:00Z,29.1015,-89.9782,19.03,11111222 
WAVCIS,ioos:station:WAVCIS:CSI09:1,2009-12-02T09:00:00Z,29.1015,-89.9782,20.5,11111222 
WAVCIS,ioos:station:WAVCIS:CSI09:1,2009-12-02T10:00:00Z,29.1015,-89.9782,19.12,11111222 
WAVCIS,ioos:station:WAVCIS:CSI09:1,2009-12-02T11:00:00Z,29.1015,-89.9782,17.99,11111222 
WAVCIS,ioos:station:WAVCIS:CSI09:1,2009-12-02T12:00:00Z,29.1015,-89.9782,18.3,11111222 
WAVCIS,ioos:station:WAVCIS:CSI09:1,2009-12-02T13:00:00Z,29.1015,-89.9782,18.07,11111222 
WAVCIS,ioos:station:WAVCIS:CSI09:1,2009-12-02T14:00:00Z,29.1015,-89.9782,17.32,11111222 
WAVCIS,ioos:station:WAVCIS:CSI09:1,2009-12-02T15:00:00Z,29.1015,-89.9782,17.17,11111222 
WAVCIS,ioos:station:WAVCIS:CSI09:1,2009-12-02T16:00:00Z,29.1015,-89.9782,15.18,11111222 
WAVCIS,ioos:station:WAVCIS:CSI09:1,2009-12-02T17:00:00Z,29.1015,-89.9782,14.91,11111222 
WAVCIS,ioos:station:WAVCIS:CSI09:1,2009-12-02T18:00:00Z,29.1015,-89.9782,15.82,11111222 
WAVCIS,ioos:station:WAVCIS:CSI09:1,2009-12-02T19:00:00Z,29.1015,-89.9782,16.95,11111222 
WAVCIS,ioos:station:WAVCIS:CSI09:1,2009-12-02T20:00:00Z,29.1015,-89.9782,17.67,11111222 
WAVCIS,ioos:station:WAVCIS:CSI09:1,2009-12-02T21:00:00Z,29.1015,-89.9782,16.27,11111222 
WAVCIS,ioos:station:WAVCIS:CSI09:1,2009-12-02T22:00:00Z,29.1015,-89.9782,15.03,11111222 
WAVCIS,ioos:station:WAVCIS:CSI09:1,2009-12-02T23:00:00Z,29.1015,-89.9782,13.97,11111222 
WAVCIS,ioos:station:WAVCIS:CSI09:1,2009-12-03T00:00:00Z,29.1015,-89.9782,13.04,11111222 
WAVCIS,ioos:station:WAVCIS:CSI09:1,2009-12-03T01:00:00Z,29.1015,-89.9782,12.53,11111222 
WAVCIS,ioos:station:WAVCIS:CSI09:1,2009-12-03T02:00:00Z,29.1015,-89.9782,12.22,11111222 
WAVCIS,ioos:station:WAVCIS:CSI09:1,2009-12-03T03:00:00Z,29.1015,-89.9782,12.07,11111222 
WAVCIS,ioos:station:WAVCIS:CSI09:1,2009-12-03T04:00:00Z,29.1015,-89.9782,11.78,11111222 
WAVCIS,ioos:station:WAVCIS:CSI09:1,2009-12-03T05:00:00Z,29.1015,-89.9782,11.09,11111222 
WAVCIS,ioos:station:WAVCIS:CSI09:1,2009-12-03T06:00:00Z,29.1015,-89.9782,10.82,11111222 
WAVCIS,ioos:station:WAVCIS:CSI09:1,2009-12-03T07:00:00Z,29.1015,-89.9782,10.64,11111222 
WAVCIS,ioos:station:WAVCIS:CSI09:1,2009-12-03T08:00:00Z,29.1015,-89.9782,10.53,11111222 
WAVCIS,ioos:station:WAVCIS:CSI09:1,2009-12-03T09:00:00Z,29.1015,-89.9782,10.11,11111222 
WAVCIS,ioos:station:WAVCIS:CSI09:1,2009-12-03T10:00:00Z,29.1015,-89.9782,9.94,11111222 
WAVCIS,ioos:station:WAVCIS:CSI09:1,2009-12-03T11:00:00Z,29.1015,-89.9782,9.96,11111222 
WAVCIS,ioos:station:WAVCIS:CSI09:1,2009-12-03T12:00:00Z,29.1015,-89.9782,9.79,11111222 
WAVCIS,ioos:station:WAVCIS:CSI09:1,2009-12-03T13:00:00Z,29.1015,-89.9782,9.3,11111222 
WAVCIS,ioos:station:WAVCIS:CSI09:1,2009-12-03T14:00:00Z,29.1015,-89.9782,9.2,11111222 
WAVCIS,ioos:station:WAVCIS:CSI09:1,2009-12-03T15:00:00Z,29.1015,-89.9782,9.19,11111222 
WAVCIS,ioos:station:WAVCIS:CSI09:1,2009-12-03T16:00:00Z,29.1015,-89.9782,9.26,11111222 
WAVCIS,ioos:station:WAVCIS:CSI09:1,2009-12-03T17:00:00Z,29.1015,-89.9782,9.38,11111222 
WAVCIS,ioos:station:WAVCIS:CSI09:1,2009-12-03T18:00:00Z,29.1015,-89.9782,9.7,11111222 
WAVCIS,ioos:station:WAVCIS:CSI09:1,2009-12-03T19:00:00Z,29.1015,-89.9782,10.25,11111222 
WAVCIS,ioos:station:WAVCIS:CSI09:1,2009-12-03T20:00:00Z,29.1015,-89.9782,11.11,11111222 
WAVCIS,ioos:station:WAVCIS:CSI09:1,2009-12-03T21:00:00Z,29.1015,-89.9782,11.41,11111222 
WAVCIS,ioos:station:WAVCIS:CSI09:1,2009-12-03T22:00:00Z,29.1015,-89.9782,11.8,11111222 
WAVCIS,ioos:station:WAVCIS:CSI09:1,2009-12-03T23:00:00Z,29.1015,-89.9782,11.77,11111222 
WAVCIS,ioos:station:WAVCIS:CSI09:1,2009-12-04T00:00:00Z,29.1015,-89.9782,11.89,11111222 
WAVCIS,ioos:station:WAVCIS:CSI09:1,2009-12-04T01:00:00Z,29.1015,-89.9782,12.11,11111222 
WAVCIS,ioos:station:WAVCIS:CSI09:1,2009-12-04T02:00:00Z,29.1015,-89.9782,12.12,11111222 
WAVCIS,ioos:station:WAVCIS:CSI09:1,2009-12-04T03:00:00Z,29.1015,-89.9782,11.98,11111222 
WAVCIS,ioos:station:WAVCIS:CSI09:1,2009-12-04T04:00:00Z,29.1015,-89.9782,11.53,11111222 
WAVCIS,ioos:station:WAVCIS:CSI09:1,2009-12-04T05:00:00Z,29.1015,-89.9782,10.72,11111222 
WAVCIS,ioos:station:WAVCIS:CSI09:1,2009-12-04T06:00:00Z,29.1015,-89.9782,10.57,11111222 
WAVCIS,ioos:station:WAVCIS:CSI09:1,2009-12-04T07:00:00Z,29.1015,-89.9782,10.39,11111222 
WAVCIS,ioos:station:WAVCIS:CSI09:1,2009-12-04T08:00:00Z,29.1015,-89.9782,10.16,11111222 
WAVCIS,ioos:station:WAVCIS:CSI09:1,2009-12-04T09:00:00Z,29.1015,-89.9782,9.91,11111222 
WAVCIS,ioos:station:WAVCIS:CSI09:1,2009-12-04T10:00:00Z,29.1015,-89.9782,10.06,11111222 
WAVCIS,ioos:station:WAVCIS:CSI09:1,2009-12-04T11:00:00Z,29.1015,-89.9782,9.83,11111222 
WAVCIS,ioos:station:WAVCIS:CSI09:1,2009-12-04T12:00:00Z,29.1015,-89.9782,9.9,11111222 
WAVCIS,ioos:station:WAVCIS:CSI09:1,2009-12-04T13:00:00Z,29.1015,-89.9782,9.31,11111222 
WAVCIS,ioos:station:WAVCIS:CSI09:1,2009-12-04T14:00:00Z,29.1015,-89.9782,9.03,11111222 
WAVCIS,ioos:station:WAVCIS:CSI09:1,2009-12-04T15:00:00Z,29.1015,-89.9782,9.19,11111222 
WAVCIS,ioos:station:WAVCIS:CSI09:1,2009-12-04T16:00:00Z,29.1015,-89.9782,9.41,11111222 
WAVCIS,ioos:station:WAVCIS:CSI09:1,2009-12-04T17:00:00Z,29.1015,-89.9782,9.89,11111222 
WAVCIS,ioos:station:WAVCIS:CSI09:1,2009-12-04T18:00:00Z,29.1015,-89.9782,10.42,11111222 
WAVCIS,ioos:station:WAVCIS:CSI09:1,2009-12-04T19:00:00Z,29.1015,-89.9782,10.18,11111222 
WAVCIS,ioos:station:WAVCIS:CSI09:1,2009-12-04T20:00:00Z,29.1015,-89.9782,10.07,11111222 
WAVCIS,ioos:station:WAVCIS:CSI09:1,2009-12-04T21:00:00Z,29.1015,-89.9782,10.1,11111222 
WAVCIS,ioos:station:WAVCIS:CSI09:1,2009-12-04T22:00:00Z,29.1015,-89.9782,9.72,11111222 
WAVCIS,ioos:station:WAVCIS:CSI09:1,2009-12-04T23:00:00Z,29.1015,-89.9782,9.64,11111222 
WAVCIS,ioos:station:WAVCIS:CSI09:1,2009-12-05T00:00:00Z,29.1015,-89.9782,8.6,11111222 
WAVCIS,ioos:station:WAVCIS:CSI09:1,2009-12-05T01:00:00Z,29.1015,-89.9782,8.02,11111222 
WAVCIS,ioos:station:WAVCIS:CSI09:1,2009-12-05T02:00:00Z,29.1015,-89.9782,7.43,11111222 
WAVCIS,ioos:station:WAVCIS:CSI09:1,2009-12-05T03:00:00Z,29.1015,-89.9782,6.69,11111222 
WAVCIS,ioos:station:WAVCIS:CSI09:1,2009-12-05T04:00:00Z,29.1015,-89.9782,6.3,11111222 
WAVCIS,ioos:station:WAVCIS:CSI09:1,2009-12-05T05:00:00Z,29.1015,-89.9782,6.4,11111222 
WAVCIS,ioos:station:WAVCIS:CSI09:1,2009-12-05T06:00:00Z,29.1015,-89.9782,6.53,11111222 
WAVCIS,ioos:station:WAVCIS:CSI09:1,2009-12-05T07:00:00Z,29.1015,-89.9782,6.18,11111222 
WAVCIS,ioos:station:WAVCIS:CSI09:1,2009-12-05T08:00:00Z,29.1015,-89.9782,5.166,11111222 
WAVCIS,ioos:station:WAVCIS:CSI09:1,2009-12-05T09:00:00Z,29.1015,-89.9782,4.606,11111222 
WAVCIS,ioos:station:WAVCIS:CSI09:1,2009-12-05T10:00:00Z,29.1015,-89.9782,4.613,11111222 
WAVCIS,ioos:station:WAVCIS:CSI09:1,2009-12-05T11:00:00Z,29.1015,-89.9782,4.687,11111222 
WAVCIS,ioos:station:WAVCIS:CSI09:1,2009-12-05T12:00:00Z,29.1015,-89.9782,4.632,11111222 
WAVCIS,ioos:station:WAVCIS:CSI09:1,2009-12-05T13:00:00Z,29.1015,-89.9782,4.385,11111222 
WAVCIS,ioos:station:WAVCIS:CSI09:1,2009-12-05T14:00:00Z,29.1015,-89.9782,4.357,11111222 
WAVCIS,ioos:station:WAVCIS:CSI09:1,2009-12-05T15:00:00Z,29.1015,-89.9782,4.038,11111222 
WAVCIS,ioos:station:WAVCIS:CSI09:1,2009-12-05T16:00:00Z,29.1015,-89.9782,4.04,11111222 
WAVCIS,ioos:station:WAVCIS:CSI09:1,2009-12-05T17:00:00Z,29.1015,-89.9782,4.29,11111222 
WAVCIS,ioos:station:WAVCIS:CSI09:1,2009-12-05T18:00:00Z,29.1015,-89.9782,4.579,11111222 
WAVCIS,ioos:station:WAVCIS:CSI09:1,2009-12-05T19:00:00Z,29.1015,-89.9782,4.428,11111222 
WAVCIS,ioos:station:WAVCIS:CSI09:1,2009-12-05T20:00:00Z,29.1015,-89.9782,5.037,11111222 
WAVCIS,ioos:station:WAVCIS:CSI09:1,2009-12-05T21:00:00Z,29.1015,-89.9782,5.836,11111222 
WAVCIS,ioos:station:WAVCIS:CSI09:1,2009-12-05T22:00:00Z,29.1015,-89.9782,6.99,11111222 
WAVCIS,ioos:station:WAVCIS:CSI09:1,2009-12-05T23:00:00Z,29.1015,-89.9782,6.64,11111222 
WAVCIS,ioos:station:WAVCIS:CSI09:1,2009-12-06T00:00:00Z,29.1015,-89.9782,6.81,11111222 
WAVCIS,ioos:station:WAVCIS:CSI09:1,2009-12-06T01:00:00Z,29.1015,-89.9782,7.17,11111222 
WAVCIS,ioos:station:WAVCIS:CSI09:1,2009-12-06T02:00:00Z,29.1015,-89.9782,7.32,11111222 
WAVCIS,ioos:station:WAVCIS:CSI09:1,2009-12-06T03:00:00Z,29.1015,-89.9782,7.46,11111222 
WAVCIS,ioos:station:WAVCIS:CSI09:1,2009-12-06T04:00:00Z,29.1015,-89.9782,7.71,11111222 
WAVCIS,ioos:station:WAVCIS:CSI09:1,2009-12-06T05:00:00Z,29.1015,-89.9782,7.83,11111222 
WAVCIS,ioos:station:WAVCIS:CSI09:1,2009-12-06T06:00:00Z,29.1015,-89.9782,8.09,11111222 
WAVCIS,ioos:station:WAVCIS:CSI09:1,2009-12-06T07:00:00Z,29.1015,-89.9782,8.39,11111222 
WAVCIS,ioos:station:WAVCIS:CSI09:1,2009-12-06T08:00:00Z,29.1015,-89.9782,8.6,11111222 
WAVCIS,ioos:station:WAVCIS:CSI09:1,2009-12-06T09:00:00Z,29.1015,-89.9782,8.93,11111222 
WAVCIS,ioos:station:WAVCIS:CSI09:1,2009-12-06T10:00:00Z,29.1015,-89.9782,9.3,11111222 
WAVCIS,ioos:station:WAVCIS:CSI09:1,2009-12-06T11:00:00Z,29.1015,-89.9782,9.94,11111222 
WAVCIS,ioos:station:WAVCIS:CSI09:1,2009-12-06T12:00:00Z,29.1015,-89.9782,10.67,11111222 
WAVCIS,ioos:station:WAVCIS:CSI09:1,2009-12-06T13:00:00Z,29.1015,-89.9782,11.25,11111222 
WAVCIS,ioos:station:WAVCIS:CSI09:1,2009-12-06T14:00:00Z,29.1015,-89.9782,12.31,11111222 
WAVCIS,ioos:station:WAVCIS:CSI09:1,2009-12-06T15:00:00Z,29.1015,-89.9782,12.27,11111222 
WAVCIS,ioos:station:WAVCIS:CSI09:1,2009-12-06T16:00:00Z,29.1015,-89.9782,13.18,11111222 
WAVCIS,ioos:station:WAVCIS:CSI09:1,2009-12-06T17:00:00Z,29.1015,-89.9782,12.7,11111222 
WAVCIS,ioos:station:WAVCIS:CSI09:1,2009-12-06T18:00:00Z,29.1015,-89.9782,13.56,11111222 
WAVCIS,ioos:station:WAVCIS:CSI09:1,2009-12-06T19:00:00Z,29.1015,-89.9782,13.18,11111222 
WAVCIS,ioos:station:WAVCIS:CSI09:1,2009-12-06T20:00:00Z,29.1015,-89.9782,13.17,11111222 
WAVCIS,ioos:station:WAVCIS:CSI09:1,2009-12-06T21:00:00Z,29.1015,-89.9782,13.5,11111222 
WAVCIS,ioos:station:WAVCIS:CSI09:1,2009-12-06T22:00:00Z,29.1015,-89.9782,13.39,11111222 
WAVCIS,ioos:station:WAVCIS:CSI09:1,2009-12-06T23:00:00Z,29.1015,-89.9782,13.7,11111222 
WAVCIS,ioos:station:WAVCIS:CSI09:1,2009-12-07T00:00:00Z,29.1015,-89.9782,15.07,11111222 
WAVCIS,ioos:station:WAVCIS:CSI09:1,2009-12-07T01:00:00Z,29.1015,-89.9782,15.81,11111222 
WAVCIS,ioos:station:WAVCIS:CSI09:1,2009-12-07T02:00:00Z,29.1015,-89.9782,16.45,11111222 
WAVCIS,ioos:station:WAVCIS:CSI09:1,2009-12-07T03:00:00Z,29.1015,-89.9782,16.61,11111222 
WAVCIS,ioos:station:WAVCIS:CSI09:1,2009-12-07T04:00:00Z,29.1015,-89.9782,16.85,11111222 
WAVCIS,ioos:station:WAVCIS:CSI09:1,2009-12-07T05:00:00Z,29.1015,-89.9782,16.98,11111222 
WAVCIS,ioos:station:WAVCIS:CSI09:1,2009-12-07T06:00:00Z,29.1015,-89.9782,17.41,11111222 
WAVCIS,ioos:station:WAVCIS:CSI09:1,2009-12-07T07:00:00Z,29.1015,-89.9782,17.63,11111222 
WAVCIS,ioos:station:WAVCIS:CSI09:1,2009-12-07T08:00:00Z,29.1015,-89.9782,17.92,11111222 
WAVCIS,ioos:station:WAVCIS:CSI09:1,2009-12-07T09:00:00Z,29.1015,-89.9782,18.06,11111222 
WAVCIS,ioos:station:WAVCIS:CSI09:1,2009-12-07T10:00:00Z,29.1015,-89.9782,18.1,11111222 
WAVCIS,ioos:station:WAVCIS:CSI09:1,2009-12-07T11:00:00Z,29.1015,-89.9782,18.18,11111222 
WAVCIS,ioos:station:WAVCIS:CSI09:1,2009-12-07T12:00:00Z,29.1015,-89.9782,18.36,11111222 
WAVCIS,ioos:station:WAVCIS:CSI09:1,2009-12-07T13:00:00Z,29.1015,-89.9782,18.7,11111222 
WAVCIS,ioos:station:WAVCIS:CSI09:1,2009-12-07T14:00:00Z,29.1015,-89.9782,19.25,11111222 
WAVCIS,ioos:station:WAVCIS:CSI09:1,2009-12-07T15:00:00Z,29.1015,-89.9782,19.45,11111222 
WAVCIS,ioos:station:WAVCIS:CSI09:1,2009-12-07T16:00:00Z,29.1015,-89.9782,19.62,11111222 
WAVCIS,ioos:station:WAVCIS:CSI09:1,2009-12-07T17:00:00Z,29.1015,-89.9782,19.7,11111222 
WAVCIS,ioos:station:WAVCIS:CSI09:1,2009-12-07T18:00:00Z,29.1015,-89.9782,19.9,11111222 
WAVCIS,ioos:station:WAVCIS:CSI09:1,2009-12-07T19:00:00Z,29.1015,-89.9782,19.72,11111222 
WAVCIS,ioos:station:WAVCIS:CSI09:1,2009-12-07T20:00:00Z,29.1015,-89.9782,19.74,11111222 
WAVCIS,ioos:station:WAVCIS:CSI09:1,2009-12-07T21:00:00Z,29.1015,-89.9782,19.69,11111222 
WAVCIS,ioos:station:WAVCIS:CSI09:1,2009-12-07T22:00:00Z,29.1015,-89.9782,19.34,11111222 
WAVCIS,ioos:station:WAVCIS:CSI09:1,2009-12-07T23:00:00Z,29.1015,-89.9782,18.59,11111222 
WAVCIS,ioos:station:WAVCIS:CSI09:1,2009-12-08T00:00:00Z,29.1015,-89.9782,18.9,11111222 
WAVCIS,ioos:station:WAVCIS:CSI09:1,2009-12-08T01:00:00Z,29.1015,-89.9782,18.94,11111222 
WAVCIS,ioos:station:WAVCIS:CSI09:1,2009-12-08T02:00:00Z,29.1015,-89.9782,18.84,11111222 
WAVCIS,ioos:station:WAVCIS:CSI09:1,2009-12-08T03:00:00Z,29.1015,-89.9782,19.11,11111222 
WAVCIS,ioos:station:WAVCIS:CSI09:1,2009-12-08T04:00:00Z,29.1015,-89.9782,19.17,11111222 
WAVCIS,ioos:station:WAVCIS:CSI09:1,2009-12-08T05:00:00Z,29.1015,-89.9782,19.13,11111222 
WAVCIS,ioos:station:WAVCIS:CSI09:1,2009-12-08T06:00:00Z,29.1015,-89.9782,19.12,11111222 
WAVCIS,ioos:station:WAVCIS:CSI09:1,2009-12-08T07:00:00Z,29.1015,-89.9782,19.18,11111222 
WAVCIS,ioos:station:WAVCIS:CSI09:1,2009-12-08T08:00:00Z,29.1015,-89.9782,19.05,11111222 
WAVCIS,ioos:station:WAVCIS:CSI09:1,2009-12-08T09:00:00Z,29.1015,-89.9782,19.73,11111222 
WAVCIS,ioos:station:WAVCIS:CSI09:1,2009-12-08T10:00:00Z,29.1015,-89.9782,19.52,11111222 
WAVCIS,ioos:station:WAVCIS:CSI09:1,2009-12-08T11:00:00Z,29.1015,-89.9782,19.7,11111222 
WAVCIS,ioos:station:WAVCIS:CSI09:1,2009-12-08T12:00:00Z,29.1015,-89.9782,20.56,11111222 
WAVCIS,ioos:station:WAVCIS:CSI09:1,2009-12-08T13:00:00Z,29.1015,-89.9782,20.87,11111222 
WAVCIS,ioos:station:WAVCIS:CSI09:1,2009-12-08T14:00:00Z,29.1015,-89.9782,20.98,11111222 
WAVCIS,ioos:station:WAVCIS:CSI09:1,2009-12-08T15:00:00Z,29.1015,-89.9782,21.18,11111222 
WAVCIS,ioos:station:WAVCIS:CSI09:1,2009-12-08T16:00:00Z,29.1015,-89.9782,21.15,11111222 
WAVCIS,ioos:station:WAVCIS:CSI09:1,2009-12-08T17:00:00Z,29.1015,-89.9782,21.13,11111222 
WAVCIS,ioos:station:WAVCIS:CSI09:1,2009-12-08T18:00:00Z,29.1015,-89.9782,21.34,11111222 
WAVCIS,ioos:station:WAVCIS:CSI09:1,2009-12-08T19:00:00Z,29.1015,-89.9782,21.37,11111222 
WAVCIS,ioos:station:WAVCIS:CSI09:1,2009-12-08T20:00:00Z,29.1015,-89.9782,21.35,11111222 
WAVCIS,ioos:station:WAVCIS:CSI09:1,2009-12-08T21:00:00Z,29.1015,-89.9782,21.43,11111222 
WAVCIS,ioos:station:WAVCIS:CSI09:1,2009-12-08T22:00:00Z,29.1015,-89.9782,21.41,11111222 
WAVCIS,ioos:station:WAVCIS:CSI09:1,2009-12-08T23:00:00Z,29.1015,-89.9782,21.23,11111222 
WAVCIS,ioos:station:WAVCIS:CSI09:1,2009-12-09T00:00:00Z,29.1015,-89.9782,21.32,11111222 
WAVCIS,ioos:station:WAVCIS:CSI09:1,2009-12-09T01:00:00Z,29.1015,-89.9782,21.38,11111222 
WAVCIS,ioos:station:WAVCIS:CSI09:1,2009-12-09T02:00:00Z,29.1015,-89.9782,22.02,11111222 
WAVCIS,ioos:station:WAVCIS:CSI09:1,2009-12-09T03:00:00Z,29.1015,-89.9782,22.94,11111222 
WAVCIS,ioos:station:WAVCIS:CSI09:1,2009-12-09T04:00:00Z,29.1015,-89.9782,22.13,11111222 
WAVCIS,ioos:station:WAVCIS:CSI09:1,2009-12-09T05:00:00Z,29.1015,-89.9782,22.61,11111222 
WAVCIS,ioos:station:WAVCIS:CSI09:1,2009-12-09T06:00:00Z,29.1015,-89.9782,21.31,11111222 
WAVCIS,ioos:station:WAVCIS:CSI09:1,2009-12-09T07:00:00Z,29.1015,-89.9782,21.17,11111222 
WAVCIS,ioos:station:WAVCIS:CSI09:1,2009-12-09T08:00:00Z,29.1015,-89.9782,21.31,11111222 
WAVCIS,ioos:station:WAVCIS:CSI09:1,2009-12-09T09:00:00Z,29.1015,-89.9782,21.83,11111222 
WAVCIS,ioos:station:WAVCIS:CSI09:1,2009-12-09T10:00:00Z,29.1015,-89.9782,20.67,11111222 
WAVCIS,ioos:station:WAVCIS:CSI09:1,2009-12-09T11:00:00Z,29.1015,-89.9782,20.91,11111222 
WAVCIS,ioos:station:WAVCIS:CSI09:1,2009-12-09T12:00:00Z,29.1015,-89.9782,20.9,11111222 
WAVCIS,ioos:station:WAVCIS:CSI09:1,2009-12-09T13:00:00Z,29.1015,-89.9782,20.36,11111222 
WAVCIS,ioos:station:WAVCIS:CSI09:1,2009-12-09T14:00:00Z,29.1015,-89.9782,20.2,11111222 
WAVCIS,ioos:station:WAVCIS:CSI09:1,2009-12-09T15:00:00Z,29.1015,-89.9782,19.36,11111222 
WAVCIS,ioos:station:WAVCIS:CSI09:1,2009-12-09T16:00:00Z,29.1015,-89.9782,19.32,11111222 
WAVCIS,ioos:station:WAVCIS:CSI09:1,2009-12-09T17:00:00Z,29.1015,-89.9782,20.36,11111222 
WAVCIS,ioos:station:WAVCIS:CSI09:1,2009-12-09T18:00:00Z,29.1015,-89.9782,21.05,11111222 
WAVCIS,ioos:station:WAVCIS:CSI09:1,2009-12-09T19:00:00Z,29.1015,-89.9782,20.43,11111222 
WAVCIS,ioos:station:WAVCIS:CSI09:1,2009-12-09T20:00:00Z,29.1015,-89.9782,19.6,11111222 
WAVCIS,ioos:station:WAVCIS:CSI09:1,2009-12-09T21:00:00Z,29.1015,-89.9782,18.54,11111222 
WAVCIS,ioos:station:WAVCIS:CSI09:1,2009-12-09T22:00:00Z,29.1015,-89.9782,18.3,11111222 
WAVCIS,ioos:station:WAVCIS:CSI09:1,2009-12-09T23:00:00Z,29.1015,-89.9782,18.09,11111222 
WAVCIS,ioos:station:WAVCIS:CSI09:1,2009-12-10T00:00:00Z,29.1015,-89.9782,18.12,11111222 
WAVCIS,ioos:station:WAVCIS:CSI09:1,2009-12-10T01:00:00Z,29.1015,-89.9782,18.03,11111222 
WAVCIS,ioos:station:WAVCIS:CSI09:1,2009-12-10T02:00:00Z,29.1015,-89.9782,17.7,11111222 
WAVCIS,ioos:station:WAVCIS:CSI09:1,2009-12-10T03:00:00Z,29.1015,-89.9782,16.84,11111222 
WAVCIS,ioos:station:WAVCIS:CSI09:1,2009-12-10T04:00:00Z,29.1015,-89.9782,15.76,11111222 
WAVCIS,ioos:station:WAVCIS:CSI09:1,2009-12-10T05:00:00Z,29.1015,-89.9782,14.71,11111222 
WAVCIS,ioos:station:WAVCIS:CSI09:1,2009-12-10T06:00:00Z,29.1015,-89.9782,13.84,11111222 
WAVCIS,ioos:station:WAVCIS:CSI09:1,2009-12-10T07:00:00Z,29.1015,-89.9782,13.09,11111222 
WAVCIS,ioos:station:WAVCIS:CSI09:1,2009-12-10T08:00:00Z,29.1015,-89.9782,11.98,11111222 
WAVCIS,ioos:station:WAVCIS:CSI09:1,2009-12-10T09:00:00Z,29.1015,-89.9782,11.2,11111222 
WAVCIS,ioos:station:WAVCIS:CSI09:1,2009-12-10T10:00:00Z,29.1015,-89.9782,10.14,11111222 
WAVCIS,ioos:station:WAVCIS:CSI09:1,2009-12-10T11:00:00Z,29.1015,-89.9782,9.67,11111222 
WAVCIS,ioos:station:WAVCIS:CSI09:1,2009-12-10T12:00:00Z,29.1015,-89.9782,9.38,11111222 
WAVCIS,ioos:station:WAVCIS:CSI09:1,2009-12-10T13:00:00Z,29.1015,-89.9782,8.83,11111222 
WAVCIS,ioos:station:WAVCIS:CSI09:1,2009-12-10T14:00:00Z,29.1015,-89.9782,8.47,11111222 
WAVCIS,ioos:station:WAVCIS:CSI09:1,2009-12-10T15:00:00Z,29.1015,-89.9782,9.02,11111222 
WAVCIS,ioos:station:WAVCIS:CSI09:1,2009-12-10T16:00:00Z,29.1015,-89.9782,8.97,11111222 
WAVCIS,ioos:station:WAVCIS:CSI09:1,2009-12-10T17:00:00Z,29.1015,-89.9782,9.09,11111222 
WAVCIS,ioos:station:WAVCIS:CSI09:1,2009-12-10T18:00:00Z,29.1015,-89.9782,9.54,11111222 
WAVCIS,ioos:station:WAVCIS:CSI09:1,2009-12-10T19:00:00Z,29.1015,-89.9782,9.81,11111222 
WAVCIS,ioos:station:WAVCIS:CSI09:1,2009-12-10T20:00:00Z,29.1015,-89.9782,10.21,11111222 
WAVCIS,ioos:station:WAVCIS:CSI09:1,2009-12-10T21:00:00Z,29.1015,-89.9782,10.49,11111222 
WAVCIS,ioos:station:WAVCIS:CSI09:1,2009-12-10T22:00:00Z,29.1015,-89.9782,10.61,11111222 
WAVCIS,ioos:station:WAVCIS:CSI09:1,2009-12-10T23:00:00Z,29.1015,-89.9782,11.21,11111222 
WAVCIS,ioos:station:WAVCIS:CSI09:1,2009-12-11T00:00:00Z,29.1015,-89.9782,11.53,11111222 
WAVCIS,ioos:station:WAVCIS:CSI09:1,2009-12-11T01:00:00Z,29.1015,-89.9782,11.61,11111222 
WAVCIS,ioos:station:WAVCIS:CSI09:1,2009-12-11T02:00:00Z,29.1015,-89.9782,11.9,11111222 
WAVCIS,ioos:station:WAVCIS:CSI09:1,2009-12-11T03:00:00Z,29.1015,-89.9782,12.12,11111222 
WAVCIS,ioos:station:WAVCIS:CSI09:1,2009-12-11T04:00:00Z,29.1015,-89.9782,12.05,11111222 
WAVCIS,ioos:station:WAVCIS:CSI09:1,2009-12-11T05:00:00Z,29.1015,-89.9782,12.34,11111222 
WAVCIS,ioos:station:WAVCIS:CSI09:1,2009-12-11T06:00:00Z,29.1015,-89.9782,12.43,11111222 
WAVCIS,ioos:station:WAVCIS:CSI09:1,2009-12-11T07:00:00Z,29.1015,-89.9782,12.48,11111222 
WAVCIS,ioos:station:WAVCIS:CSI09:1,2009-12-11T08:00:00Z,29.1015,-89.9782,12.39,11111222 
WAVCIS,ioos:station:WAVCIS:CSI09:1,2009-12-11T09:00:00Z,29.1015,-89.9782,12.27,11111222 
WAVCIS,ioos:station:WAVCIS:CSI09:1,2009-12-11T10:00:00Z,29.1015,-89.9782,12.22,11111222 
WAVCIS,ioos:station:WAVCIS:CSI09:1,2009-12-11T11:00:00Z,29.1015,-89.9782,12.36,11111222 
WAVCIS,ioos:station:WAVCIS:CSI09:1,2009-12-11T12:00:00Z,29.1015,-89.9782,11.64,11111222 
WAVCIS,ioos:station:WAVCIS:CSI09:1,2009-12-11T13:00:00Z,29.1015,-89.9782,12.12,11111222 
WAVCIS,ioos:station:WAVCIS:CSI09:1,2009-12-11T14:00:00Z,29.1015,-89.9782,12.6,11111222 
WAVCIS,ioos:station:WAVCIS:CSI09:1,2009-12-11T15:00:00Z,29.1015,-89.9782,12.96,11111222 
WAVCIS,ioos:station:WAVCIS:CSI09:1,2009-12-11T16:00:00Z,29.1015,-89.9782,11.35,11111222 
WAVCIS,ioos:station:WAVCIS:CSI09:1,2009-12-11T17:00:00Z,29.1015,-89.9782,10.92,11111222 
WAVCIS,ioos:station:WAVCIS:CSI09:1,2009-12-11T18:00:00Z,29.1015,-89.9782,11.92,11111222 
WAVCIS,ioos:station:WAVCIS:CSI09:1,2009-12-11T19:00:00Z,29.1015,-89.9782,12.34,11111222 
WAVCIS,ioos:station:WAVCIS:CSI09:1,2009-12-11T20:00:00Z,29.1015,-89.9782,12.5,11111222 
WAVCIS,ioos:station:WAVCIS:CSI09:1,2009-12-11T21:00:00Z,29.1015,-89.9782,12.23,11111222 
WAVCIS,ioos:station:WAVCIS:CSI09:1,2009-12-11T22:00:00Z,29.1015,-89.9782,12.38,11111222 
WAVCIS,ioos:station:WAVCIS:CSI09:1,2009-12-11T23:00:00Z,29.1015,-89.9782,12.16,11111222 
WAVCIS,ioos:station:WAVCIS:CSI09:1,2009-12-12T00:00:00Z,29.1015,-89.9782,12.57,11111222 
WAVCIS,ioos:station:WAVCIS:CSI09:1,2009-12-12T01:00:00Z,29.1015,-89.9782,13.03,11111222 
WAVCIS,ioos:station:WAVCIS:CSI09:1,2009-12-12T02:00:00Z,29.1015,-89.9782,13.62,11111222 
WAVCIS,ioos:station:WAVCIS:CSI09:1,2009-12-12T03:00:00Z,29.1015,-89.9782,13.96,11111222 
WAVCIS,ioos:station:WAVCIS:CSI09:1,2009-12-12T04:00:00Z,29.1015,-89.9782,14.79,11111222 